Location: Augsburg
(48.3836°N, 10.8929°E)
Time: 07:03:13
(UTC+01:00)

ISS - Pass Details

Date: 07 January 2018
Orbit: 402 x 407 km, 51.6° (Epoch: 18 January)

Event Time Altitude Azimuth Distance (km) Brightness Sun altitude
Exits shadow 05:56:17 42° 25° (NNE) 597 -3.0 -20.8°
Drops below altitude 10° 05:59:02 10° 75° (ENE) 1,470 -0.1 -20.3°
Sets 06:01:11 0° 82° (E) 2,331 1.3 -20.0°
